Time,TemperatureF,DewpointF,PressureIn,WindDirection,WindDirectionDegrees,WindSpeedMPH,WindSpeedGustMPH,Humidity,HourlyPrecipIn,Conditions,Clouds,dailyrainin,SoftwareType,DateUTC
2013-03-14 00:00:00,52.2,46.9,29.73,NW,315,0.0,0.0,82,0.00,,,0.00,WUHU216HW,2013-03-14 07:00:00,
2013-03-14 00:05:00,52.2,46.9,29.73,NW,315,0.0,0.0,82,0.00,,,0.00,WUHU216HW,2013-03-14 07:05:00,
2013-03-14 00:10:00,52.2,46.9,29.73,NW,315,0.0,0.0,82,0.00,,,0.00,WUHU216HW,2013-03-14 07:10:00,
2013-03-14 00:30:00,51.8,46.5,29.73,West,270,0.0,0.0,82,0.00,,,0.00,WUHU216HW,2013-03-14 07:30:00,
2013-03-14 00:35:00,51.8,46.8,29.73,West,270,0.0,0.0,83,0.00,,,0.00,WUHU216HW,2013-03-14 07:35:00,
2013-03-14 00:40:00,51.8,46.8,29.73,West,270,0.0,0.0,83,0.00,,,0.00,WUHU216HW,2013-03-14 07:40:00,
2013-03-14 01:00:00,51.5,46.4,29.73,West,270,0.0,0.0,83,0.00,,,0.00,WUHU216HW,2013-03-14 08:00:00,
2013-03-14 01:05:00,51.5,46.4,29.73,West,270,0.0,0.0,83,0.00,,,0.00,WUHU216HW,2013-03-14 08:05:00,
2013-03-14 01:10:00,51.5,46.4,29.73,West,270,0.0,0.0,83,0.00,,,0.00,WUHU216HW,2013-03-14 08:10:00,
2013-03-14 01:30:00,51.1,46.5,29.73,West,270,0.0,0.0,84,0.00,,,0.00,WUHU216HW,2013-03-14 08:30:00,
2013-03-14 01:35:00,51.1,46.5,29.73,West,270,0.0,0.0,84,0.00,,,0.00,WUHU216HW,2013-03-14 08:35:00,
2013-03-14 01:40:00,51.1,46.5,29.73,West,270,0.0,0.0,84,0.00,,,0.00,WUHU216HW,2013-03-14 08:40:00,
2013-03-14 02:00:00,50.4,46.0,29.73,West,270,0.4,0.4,85,0.00,,,0.00,WUHU216HW,2013-03-14 09:00:00,
2013-03-14 02:05:00,50.4,46.0,29.73,West,270,0.4,0.7,85,0.00,,,0.00,WUHU216HW,2013-03-14 09:05:00,
2013-03-14 02:10:00,50.4,46.0,29.73,West,270,0.4,0.7,85,0.00,,,0.00,WUHU216HW,2013-03-14 09:10:00,
2013-03-14 02:30:00,50.2,46.1,29.73,SW,225,0.0,0.0,86,0.00,,,0.00,WUHU216HW,2013-03-14 09:30:00,
2013-03-14 02:35:00,50.2,46.1,29.73,SW,225,0.0,0.0,86,0.00,,,0.00,WUHU216HW,2013-03-14 09:35:00,
2013-03-14 02:40:00,50.2,46.1,29.73,SW,225,0.0,0.0,86,0.00,,,0.00,WUHU216HW,2013-03-14 09:40:00,
2013-03-14 03:00:00,50.0,45.9,29.73,SW,225,0.7,0.7,86,0.00,,,0.00,WUHU216HW,2013-03-14 10:00:00,
2013-03-14 03:05:00,50.0,45.9,29.73,SW,225,0.7,0.7,86,0.00,,,0.00,WUHU216HW,2013-03-14 10:05:00,
2013-03-14 03:10:00,50.0,45.9,29.73,SW,225,0.7,0.7,86,0.00,,,0.00,WUHU216HW,2013-03-14 10:10:00,
2013-03-14 03:30:00,49.5,45.1,29.71,WSW,248,0.0,0.0,85,0.00,,,0.00,WUHU216HW,2013-03-14 10:30:00,
2013-03-14 03:35:00,49.5,45.1,29.71,WSW,248,0.0,0.0,85,0.00,,,0.00,WUHU216HW,2013-03-14 10:35:00,
2013-03-14 03:40:00,49.5,45.1,29.71,WSW,248,0.0,0.0,85,0.00,,,0.00,WUHU216HW,2013-03-14 10:40:00,
2013-03-14 04:00:00,49.3,44.9,29.70,WNW,293,0.0,0.0,85,0.00,,,0.00,WUHU216HW,2013-03-14 11:00:00,
2013-03-14 04:05:00,49.3,44.9,29.70,WNW,293,0.0,0.0,85,0.00,,,0.00,WUHU216HW,2013-03-14 11:05:00,
2013-03-14 04:30:00,48.8,44.5,29.70,WSW,248,0.0,0.0,85,0.00,,,0.00,WUHU216HW,2013-03-14 11:30:00,
2013-03-14 04:35:00,48.8,44.5,29.70,WSW,248,0.0,0.0,85,0.00,,,0.00,WUHU216HW,2013-03-14 11:35:00,
2013-03-14 04:40:00,48.8,44.5,29.70,WSW,248,0.0,0.0,85,0.00,,,0.00,WUHU216HW,2013-03-14 11:40:00,
2013-03-14 05:00:00,47.9,43.9,29.69,WSW,248,0.0,0.0,86,0.00,,,0.00,WUHU216HW,2013-03-14 12:00:00,
2013-03-14 05:05:00,47.9,43.9,29.69,WSW,248,0.0,0.0,86,0.00,,,0.00,WUHU216HW,2013-03-14 12:05:00,
2013-03-14 05:10:00,47.9,43.9,29.69,WSW,248,0.0,0.0,86,0.00,,,0.00,WUHU216HW,2013-03-14 12:10:00,
2013-03-14 05:30:00,47.3,43.4,29.69,West,270,0.0,0.0,86,0.00,,,0.00,WUHU216HW,2013-03-14 12:30:00,
2013-03-14 05:35:00,47.3,43.4,29.69,West,270,0.0,0.0,86,0.00,,,0.00,WUHU216HW,2013-03-14 12:35:00,
2013-03-14 05:40:00,47.3,43.4,29.69,West,270,0.0,0.0,86,0.00,,,0.00,WUHU216HW,2013-03-14 12:40:00,
2013-03-14 06:00:00,46.4,42.5,29.70,WNW,293,0.0,0.0,86,0.00,,,0.00,WUHU216HW,2013-03-14 13:00:00,
2013-03-14 06:05:00,46.3,42.3,29.70,WNW,293,0.0,0.0,86,0.00,,,0.00,WUHU216HW,2013-03-14 13:05:00,
2013-03-14 06:10:00,46.3,42.3,29.70,WNW,293,0.0,0.0,86,0.00,,,0.00,WUHU216HW,2013-03-14 13:10:00,
2013-03-14 06:30:00,45.7,42.1,29.70,WNW,293,0.0,0.0,87,0.00,,,0.00,WUHU216HW,2013-03-14 13:30:00,
2013-03-14 06:35:00,45.7,42.1,29.70,WNW,293,0.0,0.0,87,0.00,,,0.00,WUHU216HW,2013-03-14 13:35:00,
2013-03-14 06:40:00,45.7,42.1,29.70,WNW,293,0.0,0.0,87,0.00,,,0.00,WUHU216HW,2013-03-14 13:40:00,
2013-03-14 07:00:00,45.4,41.8,29.70,WNW,293,0.0,0.0,87,0.00,,,0.00,WUHU216HW,2013-03-14 14:00:00,
2013-03-14 07:05:00,45.4,41.8,29.70,WNW,293,0.0,0.0,87,0.00,,,0.00,WUHU216HW,2013-03-14 14:05:00,
2013-03-14 07:10:00,45.4,41.8,29.70,WNW,293,0.0,0.0,87,0.00,,,0.00,WUHU216HW,2013-03-14 14:10:00,
2013-03-14 07:30:00,45.4,42.0,29.72,WNW,293,0.0,0.0,88,0.00,,,0.00,WUHU216HW,2013-03-14 14:30:00,
2013-03-14 07:35:00,45.4,42.0,29.72,WNW,293,0.0,0.0,88,0.00,,,0.00,WUHU216HW,2013-03-14 14:35:00,
2013-03-14 07:40:00,45.4,42.0,29.72,WNW,293,0.0,0.0,88,0.00,,,0.00,WUHU216HW,2013-03-14 14:40:00,
2013-03-14 08:00:00,45.5,42.2,29.71,WNW,293,0.0,0.0,88,0.00,,,0.00,WUHU216HW,2013-03-14 15:00:00,
2013-03-14 08:05:00,45.5,42.2,29.71,WNW,293,0.0,0.0,88,0.00,,,0.00,WUHU216HW,2013-03-14 15:05:00,
2013-03-14 08:10:00,45.5,42.2,29.71,WNW,293,0.0,0.0,88,0.00,,,0.00,WUHU216HW,2013-03-14 15:10:00,
2013-03-14 08:30:00,46.4,43.1,29.72,West,270,0.0,0.0,88,0.00,,,0.00,WUHU216HW,2013-03-14 15:30:00,
2013-03-14 08:35:00,46.4,43.1,29.72,West,270,0.0,0.0,88,0.00,,,0.00,WUHU216HW,2013-03-14 15:35:00,
2013-03-14 08:40:00,46.4,43.1,29.72,West,270,0.0,0.0,88,0.00,,,0.00,WUHU216HW,2013-03-14 15:40:00,
2013-03-14 09:00:00,47.7,44.4,29.74,WSW,248,0.9,0.9,88,0.00,,,0.00,WUHU216HW,2013-03-14 16:00:00,
2013-03-14 09:05:00,47.7,44.4,29.74,WSW,248,0.4,0.9,88,0.00,,,0.00,WUHU216HW,2013-03-14 16:05:00,
2013-03-14 09:10:00,47.7,44.4,29.74,WSW,248,0.4,0.4,88,0.00,,,0.00,WUHU216HW,2013-03-14 16:10:00,
2013-03-14 09:30:00,49.0,45.5,29.75,WSW,248,0.0,0.0,88,0.00,,,0.00,WUHU216HW,2013-03-14 16:30:00,
2013-03-14 09:35:00,49.0,45.5,29.75,WSW,248,0.0,0.0,88,0.00,,,0.00,WUHU216HW,2013-03-14 16:35:00,
2013-03-14 09:40:00,49.0,45.5,29.75,WSW,248,0.0,0.0,88,0.00,,,0.00,WUHU216HW,2013-03-14 16:40:00,
2013-03-14 10:00:00,52.2,47.2,29.75,WSW,248,0.2,0.2,83,0.00,,,0.00,WUHU216HW,2013-03-14 17:00:00,
2013-03-14 10:05:00,52.2,47.2,29.75,SSE,158,0.7,0.7,83,0.00,,,0.00,WUHU216HW,2013-03-14 17:05:00,
2013-03-14 10:10:00,52.2,47.2,29.75,SSE,158,0.7,0.7,83,0.00,,,0.00,WUHU216HW,2013-03-14 17:10:00,
2013-03-14 10:30:00,52.2,46.3,29.76,SW,225,1.3,1.3,80,0.00,,,0.00,WUHU216HW,2013-03-14 17:30:00,
2013-03-14 10:35:00,52.2,46.3,29.76,WSW,248,1.1,1.3,80,0.00,,,0.00,WUHU216HW,2013-03-14 17:35:00,
2013-03-14 10:40:00,52.2,46.3,29.76,WSW,248,1.1,1.3,80,0.00,,,0.00,WUHU216HW,2013-03-14 17:40:00,
2013-03-14 11:00:00,52.7,47.1,29.75,SSW,203,1.1,1.1,81,0.00,,,0.00,WUHU216HW,2013-03-14 18:00:00,
2013-03-14 11:05:00,52.7,47.1,29.75,SSW,203,0.2,1.1,81,0.00,,,0.00,WUHU216HW,2013-03-14 18:05:00,
2013-03-14 11:10:00,52.7,47.1,29.75,SSW,203,0.2,1.1,81,0.00,,,0.00,WUHU216HW,2013-03-14 18:10:00,
2013-03-14 11:30:00,54.7,48.3,29.75,WSW,248,0.4,0.4,79,0.00,,,0.00,WUHU216HW,2013-03-14 18:30:00,
2013-03-14 11:35:00,54.7,48.3,29.75,WSW,248,0.4,0.4,79,0.00,,,0.00,WUHU216HW,2013-03-14 18:35:00,
2013-03-14 11:40:00,54.7,48.3,29.75,WSW,248,0.4,0.4,79,0.00,,,0.00,WUHU216HW,2013-03-14 18:40:00,
2013-03-14 12:00:00,55.1,48.3,29.75,SW,225,5.1,5.1,78,0.00,,,0.00,WUHU216HW,2013-03-14 19:00:00,
2013-03-14 12:05:00,55.1,48.3,29.75,SW,225,5.1,5.1,78,0.00,,,0.00,WUHU216HW,2013-03-14 19:05:00,
2013-03-14 12:10:00,55.1,48.3,29.75,SW,225,5.1,5.1,78,0.00,,,0.00,WUHU216HW,2013-03-14 19:10:00,
2013-03-14 12:30:00,57.8,48.8,29.76,WSW,248,3.8,3.8,72,0.00,,,0.00,WUHU216HW,2013-03-14 19:30:00,
2013-03-14 12:35:00,57.8,48.4,29.76,SSE,158,3.6,3.8,71,0.00,,,0.00,WUHU216HW,2013-03-14 19:35:00,
2013-03-14 12:40:00,57.8,48.4,29.76,SSE,158,3.6,3.8,71,0.00,,,0.00,WUHU216HW,2013-03-14 19:40:00,
2013-03-14 13:00:00,59.8,48.0,29.76,WSW,248,6.5,6.5,65,0.00,,,0.00,WUHU216HW,2013-03-14 20:00:00,
2013-03-14 13:05:00,59.8,48.4,29.76,SW,225,3.6,6.5,66,0.00,,,0.00,WUHU216HW,2013-03-14 20:05:00,
2013-03-14 13:10:00,59.8,48.4,29.76,SW,225,3.6,5.1,66,0.00,,,0.00,WUHU216HW,2013-03-14 20:10:00,
2013-03-14 13:30:00,59.9,46.9,29.78,SW,225,4.0,4.0,62,0.00,,,0.00,WUHU216HW,2013-03-14 20:30:00,
2013-03-14 13:35:00,59.9,46.9,29.78,NNW,338,1.3,4.0,62,0.00,,,0.00,WUHU216HW,2013-03-14 20:35:00,
2013-03-14 13:40:00,59.9,46.9,29.78,NNW,338,1.3,4.0,62,0.00,,,0.00,WUHU216HW,2013-03-14 20:40:00,
2013-03-14 14:00:00,59.8,46.4,29.77,NW,315,3.8,3.8,61,0.00,,,0.00,WUHU216HW,2013-03-14 21:00:00,
2013-03-14 14:05:00,59.8,46.4,29.77,SW,225,3.4,3.8,61,0.00,,,0.00,WUHU216HW,2013-03-14 21:05:00,
2013-03-14 14:10:00,59.8,46.4,29.77,SW,225,3.4,3.8,61,0.00,,,0.00,WUHU216HW,2013-03-14 21:10:00,
2013-03-14 14:30:00,59.8,46.4,29.78,WSW,248,7.8,7.8,61,0.00,,,0.00,WUHU216HW,2013-03-14 21:30:00,
2013-03-14 14:35:00,59.8,46.7,29.78,East,90,3.4,7.8,62,0.00,,,0.00,WUHU216HW,2013-03-14 21:35:00,
2013-03-14 14:40:00,59.8,46.7,29.78,East,90,3.4,3.4,62,0.00,,,0.00,WUHU216HW,2013-03-14 21:40:00,
2013-03-14 15:00:00,58.7,44.8,29.77,SW,225,4.9,4.9,60,0.00,,,0.00,WUHU216HW,2013-03-14 22:00:00,
2013-03-14 15:05:00,58.7,45.3,29.77,SW,225,2.7,4.9,61,0.00,,,0.00,WUHU216HW,2013-03-14 22:05:00,
2013-03-14 15:10:00,58.7,45.3,29.77,SW,225,2.7,2.7,61,0.00,,,0.00,WUHU216HW,2013-03-14 22:10:00,
2013-03-14 15:30:00,58.5,45.6,29.77,SW,225,2.2,2.2,62,0.00,,,0.00,WUHU216HW,2013-03-14 22:30:00,
2013-03-14 15:35:00,58.5,45.6,29.77,WSW,248,0.4,2.2,62,0.00,,,0.00,WUHU216HW,2013-03-14 22:35:00,
2013-03-14 15:40:00,58.5,45.6,29.77,WSW,248,0.4,2.2,62,0.00,,,0.00,WUHU216HW,2013-03-14 22:40:00,
2013-03-14 16:00:00,59.2,46.2,29.77,SE,135,1.8,1.8,62,0.00,,,0.00,WUHU216HW,2013-03-14 23:00:00,
2013-03-14 16:05:00,59.2,46.2,29.77,SSE,158,4.5,4.5,62,0.00,,,0.00,WUHU216HW,2013-03-14 23:05:00,
2013-03-14 16:10:00,59.2,46.2,29.77,SSE,158,4.5,4.5,62,0.00,,,0.00,WUHU216HW,2013-03-14 23:10:00,
2013-03-14 16:30:00,59.4,46.4,29.79,SW,225,2.5,2.5,62,0.00,,,0.00,WUHU216HW,2013-03-14 23:30:00,
2013-03-14 16:35:00,59.4,46.4,29.79,WSW,248,1.1,2.5,62,0.00,,,0.00,WUHU216HW,2013-03-14 23:35:00,
2013-03-14 16:40:00,59.4,46.4,29.79,WSW,248,1.1,2.5,62,0.00,,,0.00,WUHU216HW,2013-03-14 23:40:00,
2013-03-14 17:00:00,59.6,46.5,29.79,NW,315,2.2,2.2,62,0.00,,,0.00,WUHU216HW,2013-03-15 00:00:00,
2013-03-14 17:05:00,59.6,46.5,29.79,NW,315,2.2,2.2,62,0.00,,,0.00,WUHU216HW,2013-03-15 00:05:00,
2013-03-14 17:10:00,59.6,46.5,29.79,NW,315,2.2,2.2,62,0.00,,,0.00,WUHU216HW,2013-03-15 00:10:00,
2013-03-14 17:30:00,58.5,46.4,29.79,SSW,203,0.7,0.7,64,0.00,,,0.00,WUHU216HW,2013-03-15 00:30:00,
2013-03-14 17:35:00,58.5,46.4,29.79,SE,135,1.8,1.8,64,0.00,,,0.00,WUHU216HW,2013-03-15 00:35:00,
2013-03-14 17:40:00,58.5,46.4,29.79,SE,135,1.8,1.8,64,0.00,,,0.00,WUHU216HW,2013-03-15 00:40:00,
2013-03-14 18:00:00,57.2,45.5,29.80,SSW,203,0.4,0.4,65,0.00,,,0.00,WUHU216HW,2013-03-15 01:00:00,
2013-03-14 18:05:00,57.2,45.5,29.80,South,180,1.3,1.3,65,0.00,,,0.00,WUHU216HW,2013-03-15 01:05:00,
2013-03-14 18:10:00,57.2,45.5,29.80,South,180,1.3,1.3,65,0.00,,,0.00,WUHU216HW,2013-03-15 01:10:00,
2013-03-14 18:30:00,56.2,46.5,29.79,North,0,0.4,0.4,70,0.00,,,0.00,WUHU216HW,2013-03-15 01:30:00,
2013-03-14 18:35:00,56.0,46.4,29.79,SE,135,0.2,0.4,70,0.00,,,0.00,WUHU216HW,2013-03-15 01:35:00,
2013-03-14 18:40:00,56.0,46.4,29.79,SE,135,0.2,0.2,70,0.00,,,0.00,WUHU216HW,2013-03-15 01:40:00,
2013-03-14 19:00:00,55.3,46.7,29.80,SSE,158,0.0,0.0,73,0.00,,,0.00,WUHU216HW,2013-03-15 02:00:00,
2013-03-14 19:05:00,55.3,46.7,29.80,SSE,158,0.4,1.1,73,0.00,,,0.00,WUHU216HW,2013-03-15 02:05:00,
2013-03-14 19:10:00,55.3,46.7,29.80,SSE,158,0.4,1.1,73,0.00,,,0.00,WUHU216HW,2013-03-15 02:10:00,
2013-03-14 19:30:00,55.1,46.6,29.80,SSE,158,0.0,0.0,73,0.00,,,0.00,WUHU216HW,2013-03-15 02:30:00,
2013-03-14 19:35:00,55.1,46.6,29.80,SSE,158,0.0,0.0,73,0.00,,,0.00,WUHU216HW,2013-03-15 02:35:00,
2013-03-14 19:40:00,55.1,46.6,29.80,SSE,158,0.0,0.0,73,0.00,,,0.00,WUHU216HW,2013-03-15 02:40:00,
2013-03-14 20:00:00,54.9,46.7,29.81,South,180,1.3,1.3,74,0.00,,,0.00,WUHU216HW,2013-03-15 03:00:00,
2013-03-14 20:05:00,54.9,46.7,29.81,WSW,248,0.7,1.3,74,0.00,,,0.00,WUHU216HW,2013-03-15 03:05:00,
2013-03-14 20:10:00,54.9,46.7,29.81,WSW,248,0.7,0.7,74,0.00,,,0.00,WUHU216HW,2013-03-15 03:10:00,
2013-03-14 20:30:00,54.5,46.8,29.81,SSE,158,0.4,0.4,75,0.00,,,0.00,WUHU216HW,2013-03-15 03:30:00,
2013-03-14 20:35:00,54.5,46.8,29.81,South,180,0.2,0.4,75,0.00,,,0.00,WUHU216HW,2013-03-15 03:35:00,
2013-03-14 20:40:00,54.5,46.8,29.81,South,180,0.2,0.2,75,0.00,,,0.00,WUHU216HW,2013-03-15 03:40:00,
2013-03-14 21:00:00,54.4,46.6,29.81,SSE,158,0.0,0.0,75,0.00,,,0.00,WUHU216HW,2013-03-15 04:00:00,
2013-03-14 21:05:00,54.4,46.6,29.81,SSE,158,0.0,0.0,75,0.00,,,0.00,WUHU216HW,2013-03-15 04:05:00,
2013-03-14 21:30:00,53.8,46.1,29.83,SW,225,0.0,0.0,75,0.00,,,0.00,WUHU216HW,2013-03-15 04:30:00,
2013-03-14 21:35:00,53.8,46.1,29.83,SW,225,0.0,0.0,75,0.00,,,0.00,WUHU216HW,2013-03-15 04:35:00,
2013-03-14 21:40:00,53.8,46.1,29.83,SW,225,0.0,0.0,75,0.00,,,0.00,WUHU216HW,2013-03-15 04:40:00,
2013-03-14 22:00:00,53.8,46.8,29.83,SSE,158,1.8,1.8,77,0.00,,,0.00,WUHU216HW,2013-03-15 05:00:00,
2013-03-14 22:05:00,53.8,46.8,29.83,SE,135,4.0,4.0,77,0.00,,,0.00,WUHU216HW,2013-03-15 05:05:00,
2013-03-14 22:10:00,53.8,46.8,29.83,SE,135,4.0,4.0,77,0.00,,,0.00,WUHU216HW,2013-03-15 05:10:00,
2013-03-14 22:30:00,54.0,47.4,29.84,ESE,113,0.9,0.9,78,0.00,,,0.00,WUHU216HW,2013-03-15 05:30:00,
2013-03-14 22:35:00,54.0,47.4,29.84,ESE,113,0.9,0.9,78,0.00,,,0.00,WUHU216HW,2013-03-15 05:35:00,
2013-03-14 22:40:00,54.0,47.4,29.84,ESE,113,0.9,0.9,78,0.00,,,0.00,WUHU216HW,2013-03-15 05:40:00,
2013-03-14 23:00:00,53.5,46.8,29.84,West,270,0.0,0.0,78,0.00,,,0.00,WUHU216HW,2013-03-15 06:00:00,
2013-03-14 23:05:00,53.5,46.8,29.84,West,270,0.0,0.0,78,0.00,,,0.00,WUHU216HW,2013-03-15 06:05:00,
2013-03-14 23:10:00,53.5,46.8,29.84,West,270,0.0,0.0,78,0.00,,,0.00,WUHU216HW,2013-03-15 06:10:00,
2013-03-14 23:30:00,52.6,46.3,29.85,SSE,158,0.0,0.0,79,0.00,,,0.00,WUHU216HW,2013-03-15 06:30:00,
2013-03-14 23:35:00,52.6,46.3,29.85,SSE,158,0.0,0.0,79,0.00,,,0.00,WUHU216HW,2013-03-15 06:35:00,
2013-03-14 23:40:00,52.6,46.3,29.85,SSE,158,0.0,0.0,79,0.00,,,0.00,WUHU216HW,2013-03-15 06:40:00,